Starlink 31428

operational
NORAD ID: 59367 Int'l Des: 2024-060 Owner: SPXS Country: US Constellation: starlink
LEOCIRCULAR

关于 Starlink 31428

正在加载描述...

实时位置

正在加载3D地球...

即将过境

高度历史

Altitude vs Time

uPlot chart will show altitude changes over time

两行轨道根数

1 59367U 24060V 26036.18397527 .00001237 00000-0 54475-4 0 9993
2 59367 43.0018 83.2437 0000768 202.8608 157.2209 15.27574609105099
Epoch: Feb 5, 2026 • Age: 17 hours

当前状态

高度 493.7 km
速度 7.62 km/s
星下点 -36.43°S, 69.92°W
发射日期 Mar 31, 2024
运行时间 1.8 years
类型 internet

技术详情

分类 Payload
质量 730.00 kg
干质量 700.00 kg
总质量 730.00 kg
长度 0.30 m
直径 4.10 m
跨度 29.00 m
形状 Box + pan
制造商 SPXS
平台类型 Starlink V2M
阶段状态 In Orbit
所有者/国家 SPXS/US

大型星座

Loading constellations...